Printer-friendly version

IAU Minor Planet Center

Minor Planet Center

MPEC 2004-H07 : S/2003 J 1

The following Minor Planet Electronic Circular may be linked-to from your own Web pages, but must not otherwise be redistributed electronically.


Read MPEC 2004-H06 Read MPEC 2004-H08


M.P.E.C. 2004-H07                                Issued 2004 Apr. 16, 15:59 UT

     The Minor Planet Electronic Circulars contain information on unusual
         minor planets and routine data on comets.  They are published
   on behalf of Commission 20 of the International Astronomical Union by the
          Minor Planet Center, Smithsonian Astrophysical Observatory,
                          Cambridge, MA 02138, U.S.A.

         Supported in part by the Steven and Michele Kirsch Foundation
             Prepared using the Tamkin Foundation Computer Network

                              MPC@CFA.HARVARD.EDU
          URL http://cfa-www.harvard.edu/iau/mpc.html  ISSN 1523-6714

                                  S/2003 J 1

                           Revision to MPEC 2003-E11

Additional Observations:
    SK03J010  C2003 12 25.55743 11 12 51.41 +06 31 55.2                 EH007568
    SK03J010  C2003 12 25.58859 11 12 51.60 +06 31 54.2          23.0 R EH007568
    SK03J010  C2003 12 25.61975 11 12 51.78 +06 31 53.2          23.1 R EH007568
    SK03J010  C2004 04 15.26082 10 40 41.51 +09 39 09.3                 EH007675
    SK03J010  C2004 04 15.27006 10 40 41.41 +09 39 09.7                 EH007675

Observer details:
568 Mauna Kea.  Observers B. Gladman, J. Kavelaars, L. Allen.  3.5-m
    Canada-France-Hawaii Telescope + CCD.
675 Palomar.  Observers B. Gladman, J. Kavelaars, P. Nicholson.  5-m Hale
    Telescope + CCD.

Orbital elements:
S/2003 J 1
Epoch 2004 July 14.0 TT = JDT 2453200.5                 MPC
M 311.80448              (2000.0)            P               Q
n   0.48961317     Peri.  325.92564     -0.24707624     -0.95093871
a   0.1569894      Node   222.48646     -0.81623248     +0.10068810
e   0.2827807      Incl.  163.99770     -0.52222397     +0.29253630
P   2.01           H   15.9           P/d   735.27
Residuals in seconds of arc
030205 568  0.5+  0.1+    030225 568  0.2+  0.5+    030303 568  0.1+  0.4-
030205 568  0.5+  0.2+    030225 568  0.1+  0.3+    030303 568  0.2-  0.4-
030206 568  0.3+  0.1+    030227 568  0.0   0.3+    031225 568  0.0   0.0
030206 568  1.2-  0.9-    030227 568  0.0   0.4+    031225 568  0.0   0.0
030224 568  0.3-  0.2-    030227 568  0.1+  0.3+    031225 568  0.1-  0.0
030224 568  0.2-  0.1+    030302 568  0.1-  0.3-    040415 675  0.0   0.0
030225 568  0.3+  0.2+    030302 568  0.0   0.4-    040415 675  0.1+  0.0

Ephemeris:
    S/2003 J 1                                                   q = 0.1126
Date    TT    R. A. (2000) Decl.     Delta     r_J   dR.A. ("/m)  dDecl.m1"/')
2004 04 15    10 40.76   +09 38.7    4.550    0.171  4896-/5.52-  1232+/ 20.5+
2004 04 25    10 39.55   +09 42.4    4.669    0.167  4394-/4.95-   921+/ 15.4+
2004 05 05    10 39.53   +09 39.1    4.803    0.164  3850-/4.34-   611+/ 10.2+
2004 05 15    10 40.69   +09 28.9    4.948    0.160  3277-/3.69-   305+/  5.1+
2004 05 25    10 42.97   +09 12.1    5.101    0.156  2682-/3.02-     4+/  0.1+
2004 06 04    10 46.31   +08 49.2    5.257    0.152  2077-/2.34-   289-/  4.8-
2004 06 14    10 50.59   +08 20.7    5.413    0.148  1470-/1.65-   574-/  9.6-
2004 06 24    10 55.71   +07 47.2    5.566    0.144   869-/0.97-   848-/ 14.1-
2004 07 04    11 01.54   +07 09.3    5.712    0.140   282-/0.32-  1108-/ 18.5-
2004 07 14    11 07.99   +06 27.7    5.851    0.137   283+/0.32+  1352-/ 22.5-
2004 07 24    11 14.96   +05 42.8    5.979    0.133   816+/0.91+  1575-/ 26.2-
2004 08 03    11 22.32   +04 55.3    6.094    0.129  1309+/1.46+  1772-/ 29.5-
2004 08 13    11 30.01   +04 05.9    6.195    0.126  1754+/1.95+  1939-/ 32.3-

Brian G. Marsden             (C) Copyright 2004 MPC           M.P.E.C. 2004-H07

Read MPEC 2004-H06 Read MPEC 2004-H08


Our Web policy. Index to the CBAT/MPC/ICQ pages.


Valid HTML 4.01!